GW0828 Weather Reports


Display with metric or nautical units.
time (UTC)temp
F
wind
direction
speed
MPH
gust
MPH
rain 1hr
in
rain 24hr
in
rain mn
in
humidity
%
barometer
mb
20221209220537 48 246 11.0 24.0 0.00 0.00 0.00 27 1011.2
20221209220047 48 261 14.0 24.0 0.00 0.00 0.00 27 1011.1
20221209215542 49 257 12.0 24.0 0.00 0.00 0.00 27 1011.0
20221209215037 49 240 12.0 25.0 0.00 0.00 0.00 27 1010.9
20221209214557 49 250 15.0 25.0 0.00 0.00 0.00 26 1010.7
20221209214038 49 207 12.0 21.0 0.00 0.00 0.00 26 1010.7
20221209213538 49 222 8.0 24.0 0.00 0.00 0.00 27 1010.9
20221209213057 49 225 14.0 24.0 0.00 0.00 0.00 26 1010.8
20221209212537 49 227 13.0 24.0 0.00 0.00 0.00 26 1010.7
20221209212040 49 229 13.0 26.0 0.00 0.00 0.00 26 1011.0
20221209211552 50 225 15.0 27.0 0.00 0.00 0.00 26 1010.9
20221209211037 50 207 13.0 27.0 0.00 0.00 0.00 26 1010.9
20221209210535 49 245 10.0 18.0 0.00 0.00 0.00 26 1010.9
20221209210049 46 227 4.0 11.0 0.00 0.00 0.00 28 1011.3
20221209205536 45 0 3.0 11.0 0.00 0.00 0.00 27 1011.4
20221209205038 43 111 6.0 11.0 0.00 0.00 0.00 29 1011.4
20221209204553 44 78 6.0 12.0 0.00 0.00 0.00 29 1011.7
20221209204037 43 107 6.0 13.0 0.00 0.00 0.00 30 1011.6
20221209203537 43 180 9.0 13.0 0.00 0.00 0.00 30 1011.6
20221209203114 43 121 4.0 10.0 0.00 0.00 0.00 29 1011.9
20221209202536 43 90 4.0 10.0 0.00 0.00 0.00 30 1011.9
20221209202038 44 77 3.0 7.0 0.00 0.00 0.00 29 1011.9
20221209201603 43 140 2.0 8.0 0.00 0.00 0.00 29 1012.1
20221209201036 43 182 3.0 10.0 0.00 0.00 0.00 31 1012.2
20221209200540 42 134 6.0 12.0 0.00 0.00 0.00 32 1012.2
20221209200058 41 142 3.0 12.0 0.00 0.00 0.00 32 1012.1
20221209195535 42 63 3.0 12.0 0.00 0.00 0.00 32 1012.3
20221209195037 41 36 4.0 14.0 0.00 0.00 0.00 33 1012.4
20221209194602 41 112 7.0 14.0 0.00 0.00 0.00 34 1012.3
20221209194037 41 103 6.0 13.0 0.00 0.00 0.00 34 1012.5
20221209193542 41 196 8.0 11.0 0.00 0.00 0.00 33 1012.8
20221209193104 41 112 5.0 9.0 0.00 0.00 0.00 32 1012.9
20221209192537 40 137 3.0 8.0 0.00 0.00 0.00 33 1013.1
20221209192037 39 124 2.0 7.0 0.00 0.00 0.00 34 1013.1
20221209191613 39 100 1.0 4.0 0.00 0.00 0.00 35 1013.3
20221209191035 40 0 0.0 6.0 0.00 0.00 0.00 34 1013.3
20221209190537 39 221 1.0 6.0 0.00 0.00 0.00 35 1013.5
20221209190045 40 259 2.0 5.0 0.00 0.00 0.00 34 1013.7
20221209185542 40 254 2.0 5.0 0.00 0.00 0.00 33 1013.9
20221209185038 39 246 2.0 6.0 0.00 0.00 0.00 34 1013.9
20221209184556 39 167 4.0 6.0 0.00 0.00 0.00 30 1014.1
20221209184038 39 0 2.0 6.0 0.00 0.00 0.00 30 1014.2
20221209183538 38 209 3.0 6.0 0.00 0.00 0.00 33 1014.2
20221209183048 38 198 1.0 5.0 0.00 0.00 0.00 33 1014.2
20221209182537 38 226 2.0 6.0 0.00 0.00 0.00 33 1014.4
20221209182038 38 163 1.0 6.0 0.00 0.00 0.00 35 1014.4
20221209181553 37 188 2.0 6.0 0.00 0.00 0.00 35 1014.7
20221209181035 36 190 2.0 6.0 0.00 0.00 0.00 41 1014.7
20221209180540 36 183 2.0 9.0 0.00 0.00 0.00 41 1015.0
20221209180105 36 175 3.0 10.0 0.00 0.00 0.00 41 1015.2
20221209175537 35 196 4.0 10.0 0.00 0.00 0.00 42 1015.1
20221209175036 35 114 4.0 7.0 0.00 0.00 0.00 44 1015.0
20221209174601 35 157 4.0 7.0 0.00 0.00 0.00 42 1015.4
20221209174038 35 184 3.0 6.0 0.00 0.00 0.00 43 1015.7
20221209173539 35 202 3.0 5.0 0.00 0.00 0.00 45 1015.6
20221209173106 34 205 1.0 5.0 0.00 0.00 0.00 43 1015.8
20221209172537 34 177 2.0 5.0 0.00 0.00 0.00 46 1015.9
20221209172035 33 191 1.0 6.0 0.00 0.00 0.00 47 1015.9
20221209171601 33 146 2.0 6.0 0.00 0.00 0.00 48 1015.8
20221209171042 32 161 1.0 4.0 0.00 0.00 0.00 50 1015.9
20221209170540 31 103 1.0 4.0 0.00 0.00 0.00 52 1015.8
20221209170102 31 215 2.0 6.0 0.00 0.00 0.00 50 1016.0
20221209165538 30 255 1.0 6.0 0.00 0.00 0.00 49 1015.9
20221209165039 30 246 2.0 6.0 0.00 0.00 0.00 50 1016.1
20221209164553 31 0 1.0 4.0 0.00 0.00 0.00 48 1016.1
20221209164039 30 283 0.0 3.0 0.00 0.00 0.00 50 1016.1
20221209163537 29 286 1.0 4.0 0.00 0.00 0.00 51 1016.1
20221209163105 30 325 0.0 5.0 0.00 0.00 0.00 53 1015.9
20221209162538 29 314 2.0 5.0 0.00 0.00 0.00 52 1016.0
20221209162039 29 339 2.0 5.0 0.00 0.00 0.00 52 1016.1
20221209161602 29 338 0.0 3.0 0.00 0.00 0.00 55 1016.2
20221209161041 28 338 1.0 3.0 0.00 0.00 0.00 56 1016.3
20221209160537 27 313 1.0 3.0 0.00 0.00 0.00 58 1016.4
20221209160053 25 329 0.0 3.0 0.00 0.00 0.00 60 1016.4
20221209155537 25 0 1.0 3.0 0.00 0.00 0.00 65 1016.5
20221209155035 24 350 1.0 3.0 0.00 0.00 0.00 64 1016.4
20221209154604 23 0 1.0 4.0 0.00 0.00 0.00 67 1016.4
20221209154037 22 0 1.0 4.0 0.00 0.00 0.00 69 1016.6
20221209153535 21 317 2.0 4.0 0.00 0.00 0.00 70 1016.7
20221209153046 21 13 2.0 4.0 0.00 0.00 0.00 72 1016.8
20221209152537 20 332 2.0 4.0 0.00 0.00 0.00 73 1016.8
20221209152037 20 11 2.0 3.0 0.00 0.00 0.00 73 1016.6
20221209151550 20 335 2.0 3.0 0.00 0.00 0.00 72 1016.7
20221209151039 19 337 1.0 3.0 0.00 0.00 0.00 70 1016.8
20221209150536 19 355 1.0 3.0 0.00 0.00 0.00 70 1017.0
20221209150050 18 17 1.0 3.0 0.00 0.00 0.00 71 1017.0
20221209145539 18 15 2.0 3.0 0.00 0.00 0.00 73 1017.1
20221209145039 17 5 1.0 3.0 0.00 0.00 0.00 74 1017.2
20221209144544 17 5 0.0 3.0 0.00 0.00 0.00 74 1017.1
20221209144039 16 0 1.0 3.0 0.00 0.00 0.00 76 1017.1
20221209143537 15 115 1.0 2.0 0.00 0.00 0.00 77 1017.2
20221209143048 14 0 0.0 2.0 0.00 0.00 0.00 76 1017.3
20221209142536 15 0 1.0 2.0 0.00 0.00 0.00 76 1017.3
20221209142037 15 115 0.0 3.0 0.00 0.00 0.00 75 1017.4
20221209141559 15 0 1.0 3.0 0.00 0.00 0.00 75 1017.4
20221209141037 15 115 0.0 2.0 0.00 0.00 0.00 75 1017.4
20221209140536 15 0 0.0 2.0 0.00 0.00 0.00 74 1017.4
20221209140048 15 115 0.0 2.0 0.00 0.00 0.00 74 1017.4
20221209135537 15 0 0.0 3.0 0.00 0.00 0.00 74 1017.5
20221209135038 15 0 0.0 3.0 0.00 0.00 0.00 74 1017.6
20221209134555 16 115 1.0 3.0 0.00 0.00 0.00 75 1017.7
20221209134036 15 0 1.0 6.0 0.00 0.00 0.00 76 1017.6
20221209133539 16 115 1.0 6.0 0.00 0.00 0.00 75 1017.6
20221209133101 16 117 1.0 4.0 0.00 0.00 0.00 74 1017.7
20221209132538 16 11 0.0 3.0 0.00 0.00 0.00 75 1017.8
20221209132036 16 11 2.0 3.0 0.00 0.00 0.00 75 1017.7
20221209131549 16 10 1.0 3.0 0.00 0.00 0.00 75 1017.8
20221209131034 16 320 1.0 3.0 0.00 0.00 0.00 74 1017.9
20221209130534 16 320 1.0 3.0 0.00 0.00 0.00 75 1017.9
20221209130101 16 355 2.0 4.0 0.00 0.00 0.00 75 1017.7
20221209125542 16 343 1.0 4.0 0.00 0.00 0.00 74 1017.6
20221209125038 16 336 2.0 5.0 0.00 0.00 0.00 73 1017.5
20221209124549 16 5 2.0 5.0 0.00 0.00 0.00 72 1017.6
20221209124039 16 340 1.0 4.0 0.00 0.00 0.00 72 1017.7
20221209123537 16 350 1.0 4.0 0.00 0.00 0.00 71 1017.8
20221209123055 16 355 2.0 4.0 0.00 0.00 0.00 71 1017.7
20221209122538 16 17 1.0 4.0 0.00 0.00 0.00 70 1017.7
20221209122036 17 325 1.0 6.0 0.00 0.00 0.00 70 1017.9
20221209121558 17 0 1.0 6.0 0.00 0.00 0.00 69 1017.9
20221209121039 17 273 3.0 6.0 0.00 0.00 0.00 69 1017.9
20221209120542 18 317 1.0 3.0 0.00 0.00 0.00 71 1017.8
20221209120059 17 0 0.0 3.0 0.00 0.00 0.00 71 1018.0
20221209115537 17 28 0.0 3.0 0.00 0.00 0.00 72 1018.0
20221209115036 18 28 1.0 3.0 0.00 0.00 0.00 73 1018.1
20221209114555 18 28 1.0 3.0 0.00 0.00 0.00 74 1018.1
20221209114037 18 313 2.0 3.0 0.00 0.00 0.00 73 1018.3
20221209113537 18 13 1.0 3.0 0.00 0.00 0.00 74 1018.2
20221209113055 18 301 1.0 4.0 0.00 0.00 0.00 74 1018.3
20221209112538 18 294 2.0 4.0 0.00 0.00 0.00 73 1018.3
20221209112034 19 47 1.0 4.0 0.00 0.00 0.00 73 1018.1
20221209111555 19 5 1.0 4.0 0.00 0.00 0.00 73 1018.3
20221209111035 19 36 1.0 4.0 0.00 0.00 0.00 74 1018.3
20221209110537 19 72 2.0 4.0 0.00 0.00 0.00 72 1018.4
20221209110058 19 5 2.0 5.0 0.00 0.00 0.00 69 1018.8
20221209105535 20 5 2.0 5.0 0.00 0.00 0.00 68 1018.6
20221209105036 20 22 3.0 5.0 0.00 0.00 0.00 68 1018.5
20221209104547 20 30 2.0 4.0 0.00 0.00 0.00 69 1018.6
20221209104036 20 30 2.0 4.0 0.00 0.00 0.00 69 1018.7
20221209103539 20 25 2.0 4.0 0.00 0.00 0.00 71 1018.8
20221209103043 19 24 3.0 4.0 0.00 0.00 0.00 72 1018.9
20221209102537 19 25 2.0 4.0 0.00 0.00 0.00 72 1019.1
20221209102034 19 11 2.0 4.0 0.00 0.00 0.00 72 1019.1
20221209101549 19 10 1.0 3.0 0.00 0.00 0.00 72 1019.2
20221209101037 19 10 1.0 4.0 0.00 0.00 0.00 73 1019.3
20221209100537 19 0 1.0 4.0 0.00 0.00 0.00 73 1019.3
20221209100045 19 5 1.0 4.0 0.00 0.00 0.00 75 1019.5
20221209095538 19 17 2.0 4.0 0.00 0.00 0.00 74 1019.4
20221209095036 19 5 2.0 4.0 0.00 0.00 0.00 74 1019.4
20221209094546 19 13 2.0 4.0 0.00 0.00 0.00 73 1019.5
20221209094039 19 13 1.0 3.0 0.00 0.00 0.00 71 1019.7
20221209093539 19 360 1.0 5.0 0.00 0.00 0.00 69 1019.8
20221209093309 19 5 1.0 5.0 0.00 0.00 0.00 68 1019.8
20221209092536 19 329 2.0 4.0 0.00 0.00 0.00 67 1019.7
20221209092036 19 24 1.0 4.0 0.00 0.00 0.00 68 1019.7
20221209091552 19 14 2.0 4.0 0.00 0.00 0.00 68 1019.7
20221209091037 19 9 2.0 4.0 0.00 0.00 0.00 68 1019.8
20221209090539 19 23 2.0 5.0 0.00 0.00 0.00 70 1019.7
20221209090055 19 40 2.0 5.0 0.00 0.00 0.00 71 1019.8
20221209085538 19 11 2.0 4.0 0.00 0.00 0.00 69 1019.9
20221209085038 19 25 1.0 3.0 0.00 0.00 0.00 69 1019.9
20221209084550 19 22 1.0 3.0 0.00 0.00 0.00 68 1019.9
20221209084037 20 10 0.0 3.0 0.00 0.00 0.00 67 1019.9
20221209083537 20 18 1.0 3.0 0.00 0.00 0.00 67 1019.8
20221209083048 20 0 0.0 3.0 0.00 0.00 0.00 68 1019.8
20221209082536 20 61 1.0 3.0 0.00 0.00 0.00 68 1019.6
20221209082036 20 32 1.0 3.0 0.00 0.00 0.00 68 1019.8
20221209081603 20 10 1.0 3.0 0.00 0.00 0.00 69 1019.8
20221209081038 20 23 1.0 3.0 0.00 0.00 0.00 72 1019.8
20221209080533 20 23 1.0 3.0 0.00 0.00 0.00 71 1019.9
20221209080102 20 0 1.0 3.0 0.00 0.00 0.00 70 1020.0
20221209075538 21 30 0.0 3.0 0.00 0.00 0.00 71 1020.1
20221209075037 21 9 1.0 3.0 0.00 0.00 0.00 70 1020.1
20221209074548 21 9 2.0 3.0 0.00 0.00 0.00 70 1020.1
20221209074039 21 26 0.0 3.0 0.00 0.00 0.00 70 1020.1
20221209073537 21 26 1.0 3.0 0.00 0.00 0.00 70 1020.0
20221209073045 21 0 0.0 2.0 0.00 0.00 0.00 71 1019.9
20221209072541 20 0 0.0 4.0 0.00 0.00 0.00 71 1019.9
20221209072039 20 0 1.0 4.0 0.00 0.00 0.00 72 1019.9
20221209071558 20 17 1.0 3.0 0.00 0.00 0.00 71 1020.0
20221209071034 20 242 1.0 3.0 0.00 0.00 0.00 72 1020.2
20221209070535 20 239 1.0 2.0 0.00 0.00 0.00 72 1020.3
20221209070059 20 0 0.0 2.0 0.00 0.00 0.00 70 1020.4
20221209065538 20 0 0.0 3.0 0.00 0.00 0.00 69 1020.4
20221209065036 21 238 0.0 10.0 0.00 0.00 0.00 68 1020.5
20221209064554 21 238 4.0 10.0 0.00 0.00 0.00 67 1020.3
20221209064038 22 254 3.0 10.0 0.00 0.00 0.00 67 1020.3
20221209063539 22 242 3.0 6.0 0.00 0.00 0.00 68 1020.3
20221209063056 23 5 1.0 5.0 0.00 0.00 0.00 66 1020.0
20221209062542 23 17 2.0 6.0 0.00 0.00 0.00 62 1019.8
20221209062035 24 96 0.0 6.0 0.00 0.00 0.00 62 1019.9
20221209061553 24 96 2.0 5.0 0.00 0.00 0.00 63 1020.1
20221209061038 24 32 2.0 6.0 0.00 0.00 0.00 62 1020.1
20221209060538 24 117 2.0 6.0 0.00 0.00 0.00 58 1020.1
20221209060119 25 116 3.0 6.0 0.00 0.00 0.00 59 1020.2
20221209055539 25 0 2.0 9.0 0.00 0.00 0.00 56 1020.3
20221209055037 26 79 1.0 9.0 0.00 0.00 0.00 59 1020.3
20221209054552 24 113 5.0 8.0 0.00 0.00 0.00 62 1020.1
20221209054039 23 78 1.0 3.0 0.00 0.00 0.00 66 1020.1
20221209053539 23 71 2.0 3.0 0.00 0.00 0.00 65 1020.2
20221209053112 23 71 0.0 2.0 0.00 0.00 0.00 69 1020.4
20221209052538 23 0 0.0 2.0 0.00 0.00 0.00 60 1020.2
20221209052035 23 71 1.0 2.0 0.00 0.00 0.00 61 1020.3
20221209051545 23 71 1.0 2.0 0.00 0.00 0.00 67 1020.3
20221209051037 24 71 1.0 2.0 0.00 0.00 0.00 61 1020.3
20221209050537 24 71 1.0 2.0 0.00 0.00 0.00 65 1020.3
20221209050104 24 71 0.0 2.0 0.00 0.00 0.00 64 1020.4
20221209045535 24 0 0.0 2.0 0.00 0.00 0.00 63 1020.4
20221209045035 25 71 1.0 3.0 0.00 0.00 0.00 61 1020.5
20221209044553 25 0 1.0 3.0 0.00 0.00 0.00 61 1020.3
20221209044036 25 71 0.0 3.0 0.00 0.00 0.00 56 1020.1
20221209043535 25 0 0.0 3.0 0.00 0.00 0.00 55 1020.4
20221209043104 26 71 1.0 4.0 0.00 0.00 0.00 56 1020.4
20221209042538 26 38 2.0 4.0 0.00 0.00 0.00 55 1020.3
20221209042038 26 5 2.0 3.0 0.00 0.00 0.00 52 1020.2
20221209041552 27 16 0.0 2.0 0.00 0.00 0.00 53 1020.1
20221209041038 27 0 0.0 4.0 0.00 0.00 0.00 52 1020.1
20221209040538 27 44 1.0 4.0 0.00 0.00 0.00 51 1020.1
20221209040049 27 343 2.0 4.0 0.00 0.00 0.00 54 1020.1
20221209035538 27 360 2.0 4.0 0.00 0.00 0.00 51 1020.1
20221209035037 28 0 0.0 3.0 0.00 0.00 0.00 50 1020.1
20221209034549 28 360 1.0 5.0 0.00 0.00 0.00 49 1020.2
20221209034037 28 360 2.0 5.0 0.00 0.00 0.00 50 1020.3
20221209033535 28 349 1.0 3.0 0.00 0.00 0.00 54 1020.3
20221209033052 29 307 1.0 3.0 0.00 0.00 0.00 48 1020.2
20221209032536 30 317 2.0 3.0 0.00 0.00 0.00 44 1020.2
20221209032038 31 0 0.0 5.0 0.00 0.00 0.00 42 1020.1
20221209031552 31 163 2.0 5.0 0.00 0.00 0.00 41 1020.1
20221209031037 31 150 2.0 4.0 0.00 0.00 0.00 47 1020.0
20221209030539 31 100 0.0 4.0 0.00 0.00 0.00 41 1020.0
20221209030050 32 85 1.0 4.0 0.00 0.00 0.00 44 1019.9
20221209025539 32 84 2.0 4.0 0.00 0.00 0.00 43 1020.0
20221209025037 32 77 1.0 3.0 0.00 0.00 0.00 41 1019.9
20221209024552 32 71 2.0 3.0 0.00 0.00 0.00 42 1020.0
20221209024036 33 0 1.0 3.0 0.00 0.00 0.00 41 1020.0
20221209023536 33 95 0.0 2.0 0.00 0.00 0.00 37 1020.2
20221209023052 33 0 0.0 6.0 0.00 0.00 0.00 38 1020.1
20221209022538 33 100 1.0 8.0 0.00 0.00 0.00 40 1020.1
20221209022039 32 100 4.0 8.0 0.00 0.00 0.00 43 1020.0
20221209021630 32 104 5.0 8.0 0.00 0.00 0.00 44 1020.0
20221209021038 33 96 2.0 5.0 0.00 0.00 0.00 44 1020.0
20221209020539 34 82 1.0 9.0 0.00 0.00 0.00 37 1019.9
20221209020100 34 144 1.0 9.0 0.00 0.00 0.00 37 1020.0
20221209015539 34 82 5.0 9.0 0.00 0.00 0.00 40 1019.9
20221209015038 35 111 3.0 7.0 0.00 0.00 0.00 38 1019.8
20221209014557 35 101 3.0 11.0 0.00 0.00 0.00 39 1019.8
20221209014038 35 99 6.0 11.0 0.00 0.00 0.00 39 1019.8
20221209013538 34 106 6.0 9.0 0.00 0.00 0.00 41 1019.6
20221209013106 35 124 3.0 6.0 0.00 0.00 0.00 35 1019.7
20221209012539 35 87 3.0 7.0 0.00 0.00 0.00 37 1019.5
20221209012039 36 105 4.0 8.0 0.00 0.00 0.00 37 1019.6
20221209011556 37 119 4.0 9.0 0.00 0.00 0.00 32 1019.5
20221209011038 38 155 5.0 9.0 0.00 0.00 0.00 30 1019.5
20221209010539 37 147 3.0 7.0 0.00 0.00 0.00 29 1019.4
20221209010051 38 119 3.0 6.0 0.00 0.00 0.00 29 1019.3
20221209005540 38 157 1.0 5.0 0.00 0.00 0.00 29 1019.2
20221209005039 38 107 2.0 3.0 0.00 0.00 0.00 30 1019.1
20221209004556 39 0 0.0 4.0 0.00 0.00 0.00 28 1019.1
20221209004039 39 0 2.0 4.0 0.00 0.00 0.00 31 1019.1
20221209003538 40 0 1.0 10.0 0.00 0.00 0.00 27 1019.1
20221209003055 39 0 4.0 10.0 0.00 0.00 0.00 26 1018.9
20221209002538 40 128 2.0 10.0 0.00 0.00 0.00 28 1019.0
20221209002037 40 179 3.0 10.0 0.00 0.00 0.00 28 1019.1
20221209001600 39 63 5.0 9.0 0.00 0.00 0.00 28 1018.8
20221209001038 40 79 3.0 11.0 0.00 0.00 0.00 28 1018.6
20221209000538 40 87 5.0 11.0 0.00 0.00 0.00 28 1018.5
20221209000057 40 61 5.0 10.0 0.00 0.00 0.00 28 1018.3
20221208235541 40 63 1.0 10.0 0.00 0.00 0.00 27 1018.3
20221208235038 40 73 6.0 10.0 0.00 0.00 0.00 30 1018.1
20221208234554 40 30 4.0 9.0 0.00 0.00 0.00 29 1018.3
20221208234038 40 74 5.0 9.0 0.00 0.00 0.00 31 1018.0
20221208233539 40 65 3.0 4.0 0.00 0.00 0.00 35 1018.0
20221208233102 41 65 1.0 4.0 0.00 0.00 0.00 31 1018.0
20221208232538 42 36 2.0 4.0 0.00 0.00 0.00 30 1018.1
20221208232040 42 29 2.0 4.0 0.00 0.00 0.00 29 1018.0
20221208231602 43 24 2.0 5.0 0.00 0.00 0.00 27 1017.9
20221208231039 43 333 2.0 9.0 0.00 0.00 0.00 26 1018.1
20221208230536 43 5 1.0 10.0 0.00 0.00 0.00 26 1018.0
20221208230109 43 352 4.0 15.0 0.00 0.00 0.00 25 1018.2
20221208225539 43 308 5.0 15.0 0.00 0.00 0.00 26 1018.3
20221208225038 43 284 6.0 13.0 0.00 0.00 0.00 26 1018.3
20221208224604 43 321 7.0 15.0 0.00 0.00 0.00 27 1018.1
20221208224036 42 321 6.0 17.0 0.00 0.00 0.00 28 1018.3
20221208223539 42 313 8.0 17.0 0.00 0.00 0.00 28 1018.2
20221208223053 42 339 7.0 17.0 0.00 0.00 0.00 28 1018.3
20221208222536 42 277 9.0 15.0 0.00 0.00 0.00 28 1018.1
20221208222038 42 299 6.0 15.0 0.00 0.00 0.00 28 1018.0
20221208221557 42 330 9.0 19.0 0.00 0.00 0.00 28 1018.0
20221208221038 42 296 10.0 22.0 0.00 0.00 0.00 28 1017.9